This is the latest recevied weather packets stored in our database for station/object KD4WLE. If no packets are shown the sender has not sent any weather packets the latest 10 day(s).
| Time | Temp. | Humidity | Pressure | Rain* | Wind** | Luminosity | Snow |
|---|---|---|---|---|---|---|---|
| 1777678926 | 26.67° C | 80% | 1010.5 hPa | 0 mm | - | 11 W/m² | - |
| 1777678623 | 27.22° C | 79% | 1010.5 hPa | 0 mm | - | 17 W/m² | - |
| 1777678320 | 27.22° C | 79% | 1010.4 hPa | 0 mm | - | 23 W/m² | - |
| 1777678016 | 27.22° C | 78% | 1010.4 hPa | 0 mm | - | 23 W/m² | - |
| 1777677714 | 27.22° C | 77% | 1010.4 hPa | 0 mm | - | 23 W/m² | - |
| 1777677411 | 27.78° C | 77% | 1010.2 hPa | 0 mm | - | 25 W/m² | - |
| 1777677109 | 27.78° C | 75% | 1010.1 hPa | 0 mm | - | 30 W/m² | - |
| 1777676807 | 28.33° C | 74% | 1010.1 hPa | 0 mm | - | 38 W/m² | - |
| 1777676505 | 28.33° C | 73% | 1010.2 hPa | 0 mm | - | 44 W/m² | - |
| 1777676203 | 28.89° C | 72% | 1010 hPa | 0 mm | - | 71 W/m² | - |
| 1777675899 | 28.89° C | 71% | 1009.9 hPa | 0 mm | - | 93 W/m² | - |
| 1777675596 | 28.89° C | 71% | 1009.9 hPa | 0 mm | - | 93 W/m² | - |
| 1777675293 | 28.89° C | 70% | 1009.8 hPa | 0 mm | - | 111 W/m² | - |
| 1777674989 | 28.89° C | 71% | 1009.8 hPa | 0 mm | - | 121 W/m² | - |
| 1777674686 | 28.89° C | 72% | 1009.7 hPa | 0 mm | - | 140 W/m² | - |
| 1777674388 | 28.89° C | 72% | 1009.7 hPa | 0 mm | - | 171 W/m² | - |
| 1777674080 | 28.89° C | 71% | 1009.6 hPa | 0 mm | - | 199 W/m² | - |
| 1777673776 | 30° C | 69% | 1009.8 hPa | 0 mm | - | 242 W/m² | - |
| 1777673474 | 30° C | 68% | 1009.7 hPa | 0 mm | - | 251 W/m² | - |
| 1777673171 | 30° C | 68% | 1009.7 hPa | 0 mm | - | 270 W/m² | - |
| 1777672868 | 30° C | 68% | 1009.5 hPa | 0 mm | - | 255 W/m² | - |
| 1777672564 | 30° C | 69% | 1009.5 hPa | 0 mm | - | 268 W/m² | - |
| 1777672260 | 30° C | 69% | 1009.8 hPa | 0 mm | - | 251 W/m² | - |
| 1777671955 | 30.56° C | 69% | 1009.6 hPa | 0 mm | - | 274 W/m² | - |
| 1777671651 | 30° C | 69% | 1009.5 hPa | 0 mm | - | 300 W/m² | - |
* Rain latest hour (hover to see other rain measurements)
** Current wind speed in m/s (hover to see current wind gust speed)